Погода в Кызылоте

Турция     36°43′07″N   31°34′07″E
темп.,
°C
ветер,
м/с
пор.,
м/с
влажн.,
%
обл.,
%
осадки,
мм/ч
давл.,
гПа
погр.,
м
17 мая, вт
вт1700:00+19зсз01676 0.0 101611
03:00+19зсз117037 0.0 101511
06:00+18ссз11660 0.0 101419
09:00+22зюз21520 0.0 1014229
12:00+24ююв54520 0.0 1014445
15:00+23ююв54644 0.0 1014504
18:00+23юв23635 0.1 1013456
21:00+21с116627 0.1 101311
18 мая, ср
ср1800:00+20ю01701 0.0 101412
03:00+19ссв11710 0.0 101311
06:00+19ссз11660 0.0 101311
09:00+22юз22570 0.0 1014248
12:00+24ююз32550 0.0 1014479
15:00+24ю43570 0.0 1013492
18:00+23ю33660 0.0 1013385
21:00+20юв33783 0.0 101350
19 мая, чт
чт1900:00+20всв23809 0.0 101344
03:00+19всв11814 0.0 101229
06:00+18в22740 0.0 101375
09:00+22юв23630 0.0 1014402
12:00+23ююв44650 0.0 1014639
15:00+23ююв66651 0.0 1012552
18:00+24сз455345 0.1 1013586
21:00+20с466370 0.4 1014224
20 мая, пт
пт2000:00+18ссв45553 0.0 1015123
03:00+17ссв44550 0.0 1015108
06:00+17ссв34541 0.0 101699
09:00+21с22390 0.0 1017406
12:00+24юз32380 0.0 1017721
15:00+24ююз44420 0.0 1016487
18:00+23ю32513 0.0 1016343
21:00+20ююв12720 0.0 101618
21 мая, сб
сб2100:00+19с22630 0.0 101720
03:00+18ссв33390 0.0 101661
06:00+18ссв33380 0.0 101662
09:00+23в01370 0.0 1016234
12:00+24ю33340 0.0 1016442
15:00+25ююз32360 0.0 1015414
18:00+24зюз22480 0.0 1014277
21:00+20сз22610 0.0 101415